Погода в Белозёрках

Россия / Самарская область     53°26′25″N   50°21′45″E
темп.,
°C
ветер,
м/с
пор.,
м/с
влажн.,
%
обл.,
%
осадки,
мм/ч
давл.,
гПа
погр.,
м
18 июня, пт
пт1801:00+13ссз22840 0.0 102012
04:00+12ссз33864 0.0 102141
07:00+15с510700 0.0 1023482
10:00+18с67580 0.0 10241322
13:00+19с78520 0.0 10241718
16:00+19ссв67515 0.0 10251691
19:00+18с46658 0.0 1026401
22:00+13с227586 0.0 102621
19 июня, сб
сб1901:00+11ссз228231 0.0 102711
04:00+10ссз11820 0.0 102810
07:00+15сз12705 0.0 1029164
10:00+19зсз33555 0.0 1028747
13:00+22зсз34495 0.0 10261066
16:00+23зсз45500 0.0 10251101
19:00+22з36680 0.0 1024225
22:00+16з23800 0.0 102424
20 июня, вс
вс2001:00+15з34880 0.0 102363
04:00+15з37890 0.0 1023114
07:00+19зсз48790 0.0 1023278
10:00+24зсз56680 0.0 1023605
13:00+27сз56600 0.0 10221182
16:00+27сз56574 0.0 10221542
19:00+25зсз47720 0.0 1021288
22:00+21сз22880 0.0 102213
21 июня, пн
пн2101:00+19зсз11890 0.0 102311
04:00+19с01900 0.0 102311
07:00+22ююз11826 0.0 1023144
10:00+27зюз11595 2.4 1023908
13:00+29зсз215334 0.1 10231718
16:00+27сз2261100 0.1 1022587
19:00+25ююз1270100 0.0 102128
22:00+22юз1172100 0.0 102111
22 июня, вт
вт2201:00+20зюз1179100 0.0 102211
04:00+19з11859 0.0 102211
07:00+23зсз23765 0.0 1022169
10:00+27сз34635 0.0 1022746
13:00+29сз45500 0.0 10221443
16:00+29сз45490 0.0 10211395
19:00+27сз36670 0.0 1021189
22:00+21зсз22780 0.0 102113